This demonstration page uses our WeatherBlox Daily Observations layout. Learn more.

Left ArrowRight Arrow

39.08367, -84.50855

Hourly Observations for August 27, 2020

Temp ( °F °C ) Dew Point ( °F °C ) Humidity (%) Winds ( mph kmh ) Pressure ( in mb ) Visibility ( mi km ) Precip ( " mm )
12:53 am 00:53 Clear 77 25 71 21.7 82 82 SW 7 11 29.98 1015 10 16 N/A
1:53 am 01:53 Clear 76 24.4 71 21.7 85 85 SW 6 9 29.97 1015 10 16 N/A
2:53 am 02:53 Clear 76 24.4 72 22.2 88 88 SSW 6 9 29.96 1015 10 16 N/A
3:53 am 03:53 Clear 74 23.3 70 21.1 88 88 SSW 6 9 29.97 1015 10 16 N/A
4:53 am 04:53 Clear 73 22.8 71 21.7 94 94 N N/A 29.97 1015 10 16 N/A
5:53 am 05:53 Clear 73 22.8 71 21.7 94 94 SSW 7 11 29.98 1015 10 16 N/A
6:53 am 06:53 Mostly Clear 73 22.8 70 21.1 90 90 N N/A 29.98 1015 10 16 N/A
7:53 am 07:53 Mostly Sunny 74 23.3 72 22.2 94 94 SSW 5 7 29.99 1016 10 16 N/A
8:53 am 08:53 Partly Cloudy 77 25 72 22.2 85 85 S 7 11 30.00 1016 10 16 N/A
9:53 am 09:53 Mostly Sunny 78 25.6 73 22.8 85 85 SSW 7 11 30.00 1016 10 16 0.00 0.00
10:53 am 10:53 Mostly Sunny 81 27.2 73 22.8 77 77 WSW 8 13 30.00 1016 10 16 0.00 0.00
11:53 am 11:53 Partly Cloudy 83 28.3 74 23.3 74 74 SW 9 15 30.00 1016 10 16 N/A
12:53 pm 12:53 Mostly Cloudy 85 29.4 73 22.8 68 68 W 13 20 29.99 1016 10 16 N/A
1:30 pm 13:30 Partly Cloudy with Nearby Thunderstorms 86 30 71 21.7 61 61 W 17 28 29.96 1015 7 11 N/A
1:48 pm 13:48 Mostly Cloudy with Thunderstorms 84 29 72 22 66 66 W 18 30 29.96 1015 7 11 N/A
1:53 pm 13:53 Mostly Cloudy with Thunderstorms 85 29.4 71 21.7 63 63 W 18 30 29.98 1015 7 11 N/A
2:03 pm 14:03 Mostly Cloudy with Nearby Thunderstorms 86 30 72 22.2 63 63 WSW 21 33 29.97 1015 10 16 N/A
2:16 pm 14:16 Mostly Cloudy 85 29.4 71 21.7 63 63 WSW 16 26 29.97 1015 10 16 N/A
2:53 pm 14:53 Mostly Cloudy with Light Rain 83 28.3 71 21.7 67 67 WSW 18 30 29.98 1015 10 16 0.00 0.00
3:53 pm 15:53 Mostly Sunny 81 27.2 71 21.7 72 72 SSW 6 9 29.97 1015 10 16 0.00 0.00
4:53 pm 16:53 Sunny 81 27.2 70 21.1 69 69 S 3 6 29.95 1014 10 16 N/A
5:53 pm 17:53 Sunny 82 27.8 73 22.8 74 74 S 3 6 29.94 1014 10 16 N/A
6:53 pm 18:53 Sunny 81 27.2 74 23.3 79 79 SSW 6 9 29.95 1014 10 16 N/A
7:53 pm 19:53 Sunny 79 26.1 75 23.9 88 88 SE 3 6 29.94 1014 10 16 N/A
8:53 pm 20:53 Clear 77 25 74 23.3 90 90 N N/A 29.93 1014 10 16 N/A
9:53 pm 21:53 Clear 77 25 74 23.3 90 90 N N/A 29.95 1014 10 16 N/A
10:53 pm 22:53 Clear 76 24.4 74 23.3 94 94 SW 3 6 29.95 1014 9 14 N/A
11:53 pm 23:53 Clear 76 24.4 74 23.3 94 94 SW 3 6 29.96 1014 9 14 N/A

Powered by AerisWeather